Location: Newark
(44.3681°N, 100.3364°W)
Time: 08:37:56
(UTC+00:00)

Explorer 7 - Pass Details

Date: 21 February 2020
Orbit: 485 x 679 km, 50.3° (Epoch: 08 April)

Event Time Altitude Azimuth Distance (km) Brightness Sun altitude
Rises 19:26:40 0° 242° (WSW) 2,952 11.0 34.6°
Reaches altitude 10° 19:29:03 10° 243° (WSW) 2,018 10.3 34.6°
Maximum altitude 19:33:42 86° 332° (NNW) 616 7.6 34.4°
Drops below altitude 10° 19:38:05 10° 62° (ENE) 1,903 9.3 34.2°
Sets 19:40:17 0° 63° (ENE) 2,770 10.1 34.1°
